Willmar, MN

9:55 PM CDT on April 24, 2017 (GMT -0500)
Willmar

Weather History for KBDH - April, 2013

Change the Weather History Date:

Tuesday, April 16, 2013

  Actual Average (KBBB) Record (KBBB)
Temperature  
Mean Temperature 38 °F -  
Max Temperature 44 °F 58 °F 84 °F (1958)
Min Temperature 33 °F 36 °F 18 °F (1953)
Degree Days  
Heating Degree Days 26    
Moisture  
Dew Point 24 °F    
Average Humidity 56    
Maximum Humidity 65    
Minimum Humidity 42    
Precipitation  
Precipitation 0.00 in - - ()
Sea Level Pressure  
Sea Level Pressure 30.20 in    
Wind  
Wind Speed 12 mph (NW)    
Max Wind Speed 20 mph    
Max Gust Speed 23 mph    
Visibility 10 miles    
Events      
Averages and records for this station are not official NWS values.
T = Trace of Precipitation, MM = Missing Value Source: NWS Daily Summary

Daily Weather History Graph

Daily Weather History Graph

Search for Another Location

Airport or City:

Trip Planner

Search our weather history database for the weather conditions in past years. The results will help you decide how hot, cold, wet, or windy it might be!

Date:

Astronomy

Apr. 16, 2013 Rise Set
Actual Time 6:33 AM CDT 8:07 PM CDT
Civil Twilight 6:02 AM CDT 8:38 PM CDT
Nautical Twilight 5:25 AM CDT 9:16 PM CDT
Astronomical Twilight 4:45 AM CDT 9:56 PM CDT
Moon 10:45 AM CDT (4/16) 1:12 AM CDT (4/16)
Length of Visible Light 14h 36m
Length of Day
13h 34m
Waxing Crescent, 33% of the Moon is Illuminated
Apr 16
Waxing Crescent
Apr 18
First Quarter
Apr 25
Full
May 2
Last Quarter
May 9
New

Hourly Weather History & Observations

Time (CDT) Temp. Windchill Dew Point Humidity Pressure Visibility Wind Dir Wind Speed Gust Speed Precip Events Conditions
12:15 AM 37.4 °F 28.9 °F 24.8 °F 60% 30.01 in 10.0 mi WNW 13.8 mph 20.7 mph N/A   Overcast
12:35 AM 37.4 °F 28.9 °F 24.8 °F 60% 30.01 in 10.0 mi WNW 13.8 mph 20.7 mph N/A   Overcast
12:55 AM 37.4 °F 28.9 °F 24.8 °F 60% 30.01 in 10.0 mi WNW 13.8 mph 20.7 mph N/A   Overcast
1:15 AM 37.4 °F 28.5 °F 24.8 °F 60% 30.02 in 10.0 mi WNW 15.0 mph - N/A   Overcast
1:35 AM 37.4 °F 29.3 °F 24.8 °F 60% 30.02 in 10.0 mi WNW 12.7 mph 19.6 mph N/A   Overcast
1:55 AM 37.4 °F 27.8 °F 24.8 °F 60% 30.03 in 10.0 mi WNW 17.3 mph - N/A   Overcast
2:15 AM 37.4 °F 29.3 °F 24.8 °F 60% 30.02 in 10.0 mi WNW 12.7 mph 19.6 mph N/A   Overcast
2:35 AM 37.4 °F 30.3 °F 23.0 °F 56% 30.03 in 10.0 mi WNW 10.4 mph - N/A   Overcast
2:55 AM 37.4 °F 29.3 °F 23.0 °F 56% 30.04 in 10.0 mi WNW 12.7 mph 18.4 mph N/A   Overcast
3:15 AM 35.6 °F 25.9 °F 21.2 °F 56% 30.04 in 10.0 mi WNW 16.1 mph - N/A   Overcast
3:35 AM 35.6 °F 25.9 °F 21.2 °F 56% 30.05 in 10.0 mi NW 16.1 mph 21.9 mph N/A   Overcast
3:55 AM 35.6 °F 26.6 °F 21.2 °F 56% 30.05 in 10.0 mi WNW 13.8 mph 19.6 mph N/A   Overcast
4:15 AM 35.6 °F 25.9 °F 21.2 °F 56% 30.07 in 10.0 mi WNW 16.1 mph - N/A   Overcast
4:35 AM 35.6 °F 24.8 °F 21.2 °F 56% 30.08 in 10.0 mi NW 19.6 mph 23.0 mph N/A   Overcast
4:55 AM 35.6 °F 26.6 °F 21.2 °F 56% 30.07 in 10.0 mi NW 13.8 mph - N/A   Overcast
5:15 AM 35.6 °F 28.6 °F 23.0 °F 60% 30.09 in 10.0 mi WNW 9.2 mph - N/A   Scattered Clouds
5:35 AM 33.8 °F 25.8 °F 23.0 °F 65% 30.10 in 10.0 mi West 10.4 mph 16.1 mph N/A   Scattered Clouds
5:55 AM 33.8 °F 25.8 °F 23.0 °F 65% 30.11 in 10.0 mi WNW 10.4 mph - N/A   Scattered Clouds
6:15 AM 33.8 °F 26.4 °F 23.0 °F 65% 30.11 in 10.0 mi WNW 9.2 mph - N/A   Scattered Clouds
6:35 AM 33.8 °F 27.7 °F 23.0 °F 65% 30.12 in 10.0 mi WNW 6.9 mph - N/A   Clear
7:15 AM 33.8 °F 25.8 °F 23.0 °F 65% 30.14 in 10.0 mi WNW 10.4 mph - N/A   Clear
7:35 AM 33.8 °F 27.0 °F 23.0 °F 65% 30.15 in 10.0 mi WNW 8.1 mph - N/A   Clear
7:55 AM 33.8 °F 25.8 °F 23.0 °F 65% 30.17 in 10.0 mi WNW 10.4 mph - N/A   Clear
8:15 AM 33.8 °F 24.3 °F 23.0 °F 65% 30.17 in 10.0 mi NW 13.8 mph - N/A   Clear
8:35 AM 35.6 °F 26.6 °F 21.2 °F 56% 30.18 in 10.0 mi NW 13.8 mph - N/A   Clear
8:55 AM 35.6 °F 26.2 °F 23.0 °F 60% 30.19 in 10.0 mi NW 15.0 mph - N/A   Clear
9:15 AM 37.4 °F 28.2 °F 21.2 °F 52% 30.19 in 10.0 mi NW 16.1 mph - N/A   Clear
9:35 AM 37.4 °F 28.9 °F 23.0 °F 56% 30.20 in 10.0 mi NW 13.8 mph - N/A   Scattered Clouds
9:56 AM 37.4 °F 28.5 °F 23.0 °F 56% 30.21 in 10.0 mi NW 15.0 mph - N/A   Scattered Clouds
10:15 AM 37.4 °F 29.3 °F 23.0 °F 56% 30.21 in 10.0 mi NW 12.7 mph - N/A   Scattered Clouds
10:35 AM 37.4 °F 30.3 °F 23.0 °F 56% 30.22 in 10.0 mi WNW 10.4 mph - N/A   Scattered Clouds
10:55 AM 37.4 °F 30.3 °F 24.8 °F 60% 30.22 in 10.0 mi WNW 10.4 mph - N/A   Scattered Clouds
11:15 AM 37.4 °F 30.3 °F 24.8 °F 60% 30.23 in 10.0 mi WNW 10.4 mph - N/A   Mostly Cloudy
11:35 AM 39.2 °F 32.0 °F 24.8 °F 56% 30.24 in 10.0 mi WNW 11.5 mph - N/A   Overcast
11:55 AM 39.2 °F 32.5 °F 23.0 °F 52% 30.25 in 10.0 mi NW 10.4 mph - N/A   Mostly Cloudy
12:15 PM 39.2 °F 32.5 °F 24.8 °F 56% 30.25 in 10.0 mi NW 10.4 mph - N/A   Mostly Cloudy
12:35 PM 39.2 °F 32.0 °F 24.8 °F 56% 30.25 in 10.0 mi WNW 11.5 mph 16.1 mph N/A   Mostly Cloudy
12:55 PM 39.2 °F 33.6 °F 24.8 °F 56% 30.25 in 10.0 mi WNW 8.1 mph 16.1 mph N/A   Mostly Cloudy
1:15 PM 39.2 °F 33.6 °F 24.8 °F 56% 30.26 in 10.0 mi WNW 8.1 mph - N/A   Mostly Cloudy
1:35 PM 41.0 °F 36.4 °F 24.8 °F 53% 30.26 in 10.0 mi NW 6.9 mph - N/A   Mostly Cloudy
1:55 PM 41.0 °F 35.2 °F 24.8 °F 53% 30.26 in 10.0 mi WNW 9.2 mph - N/A   Overcast
2:15 PM 42.8 °F 38.6 °F 24.8 °F 49% 30.26 in 10.0 mi NW 6.9 mph - N/A   Mostly Cloudy
2:35 PM 42.8 °F 38.0 °F 23.0 °F 46% 30.27 in 10.0 mi NW 8.1 mph - N/A   Overcast
2:55 PM 42.8 °F 37.5 °F 24.8 °F 49% 30.27 in 10.0 mi NNW 9.2 mph - N/A   Overcast
3:15 PM 42.8 °F 37.5 °F 23.0 °F 46% 30.27 in 10.0 mi NW 9.2 mph - N/A   Mostly Cloudy
3:35 PM 42.8 °F 36.6 °F 23.0 °F 46% 30.27 in 10.0 mi NNW 11.5 mph - N/A   Overcast
3:55 PM 44.6 °F 38.8 °F 24.8 °F 46% 30.26 in 10.0 mi North 11.5 mph - N/A   Mostly Cloudy
4:15 PM 42.8 °F 37.5 °F 23.0 °F 46% 30.26 in 10.0 mi NNW 9.2 mph - N/A   Mostly Cloudy
4:35 PM 42.8 °F 37.5 °F 24.8 °F 49% 30.25 in 10.0 mi NNW 9.2 mph - N/A   Scattered Clouds
4:55 PM 42.8 °F 38.0 °F 23.0 °F 46% 30.26 in 10.0 mi NNW 8.1 mph - N/A   Mostly Cloudy
5:15 PM 42.8 °F 37.0 °F 23.0 °F 46% 30.27 in 10.0 mi North 10.4 mph - N/A   Mostly Cloudy
5:35 PM 42.8 °F 38.6 °F 23.0 °F 46% 30.27 in 10.0 mi North 6.9 mph - N/A   Mostly Cloudy
5:55 PM 42.8 °F 39.3 °F 21.2 °F 42% 30.28 in 10.0 mi NNE 5.8 mph - N/A   Scattered Clouds
6:15 PM 42.8 °F 38.6 °F 21.2 °F 42% 30.28 in 10.0 mi North 6.9 mph - N/A   Clear
6:35 PM 42.8 °F 39.3 °F 21.2 °F 42% 30.28 in 10.0 mi North 5.8 mph - N/A   Scattered Clouds
6:55 PM 42.8 °F 39.3 °F 21.2 °F 42% 30.28 in 10.0 mi North 5.8 mph - N/A   Scattered Clouds
7:15 PM 41.0 °F 37.1 °F 21.2 °F 45% 30.29 in 10.0 mi North 5.8 mph - N/A   Clear
7:35 PM 41.0 °F 37.1 °F 24.8 °F 53% 30.29 in 10.0 mi NNW 5.8 mph - N/A   Clear
7:55 PM 41.0 °F 35.8 °F 24.8 °F 53% 30.30 in 10.0 mi North 8.1 mph - N/A   Clear
8:15 PM 39.2 °F 35.0 °F 24.8 °F 56% 30.30 in 10.0 mi North 5.8 mph - N/A   Scattered Clouds
8:35 PM 39.2 °F 34.2 °F 24.8 °F 56% 30.31 in 10.0 mi NNW 6.9 mph - N/A   Scattered Clouds
8:55 PM 39.2 °F 34.2 °F 24.8 °F 56% 30.31 in 10.0 mi North 6.9 mph - N/A   Clear
9:15 PM 37.4 °F 34.9 °F 24.8 °F 60% 30.32 in 10.0 mi NNW 3.5 mph - N/A   Clear
9:35 PM 37.4 °F 33.8 °F 24.8 °F 60% 30.33 in 10.0 mi NW 4.6 mph - N/A   Clear
9:56 PM 37.4 °F 32.8 °F 26.6 °F 65% 30.34 in 10.0 mi NNW 5.8 mph - N/A   Clear
10:15 PM 37.4 °F 32.8 °F 26.6 °F 65% 30.34 in 10.0 mi NNW 5.8 mph - N/A   Clear
10:35 PM 35.6 °F 30.7 °F 24.8 °F 65% 30.33 in 10.0 mi North 5.8 mph - N/A   Clear
10:55 PM 35.6 °F 30.7 °F 24.8 °F 65% 30.33 in 10.0 mi North 5.8 mph - N/A   Clear
11:15 PM 35.6 °F 31.7 °F 24.8 °F 65% 30.32 in 10.0 mi North 4.6 mph - N/A   Clear
11:35 PM 35.6 °F 29.9 °F 24.8 °F 65% 30.31 in 10.0 mi NNE 6.9 mph - N/A   Clear
11:55 PM 35.6 °F 31.7 °F 24.8 °F 65% 30.31 in 10.0 mi NNE 4.6 mph - N/A   Clear